Regional Weather Roundup
Issued by NWS

Home | Current Version | Previous Version | Graphics & Text | Print | Product List | Glossary On
Versions: 1 2 3 4 5 6 7 8 9 10 11 12 13 14 15 16 17 18 19 20 21 22 23 24 25 26 27 28 29 30 31 32 33 34 35 36 37 38 39 40 41 42 43 44 45 46 47 48 49 50
000
ASUS43 KDMX 011007
RWRIA

WEATHER ROUNDUP FOR IOWA
NATIONAL WEATHER SERVICE DES MOINES IA
500 AM CDT MON SEP 01 2014

NOTE: "FAIR" INDICATES FEW OR NO CLOUDS BELOW 12,000 FEET WITH NO
SIGNIFICANT WEATHER AND/OR OBSTRUCTIONS TO VISIBILITY.

* - THESE STATIONS ARE NOT NWS STATIONS...THUS NOT UNDER NWS
QUALITY CONTROL.  THEY ALSO DO NOT REPORT WEATHER SUCH
AS PRECIPITATION OR FOG.

IAZ001>003-012>014-020>022-031>034-043>046-011100-
   NORTHWEST IOWA

CITY           SKY/WX    TMP DP  RH WIND       PRES   REMARKS
CARROLL *      CLOUDY    66  64  94 SW14      29.70S
CHEROKEE *     CLOUDY    64  64 100 W6        29.70S FOG
DENISON *      CLOUDY    66  66 100 W7        29.69F FOG
LE MARS *        N/A     63  63 100 CALM      29.72F
ORANGE CITY *  CLEAR     63  59  88 W6        29.72S
SHELDON *      MOCLDY    61  61 100 CALM      29.70S
SIOUX CITY     PTCLDY    61  59  93 W3        29.71F
SPENCER        CLOUDY    64  63  96 SW9       29.70R
STORM LAKE *   MOCLDY    63  63 100 W7        29.71R FOG
$$

IAZ055>058-069>071-079>083-090>094-011100-
   SOUTHWEST IOWA

CITY           SKY/WX    TMP DP  RH WIND       PRES   REMARKS
ATLANTIC *     CLOUDY    68  66  94 SW13      29.72R
AUDUBON *      MOCLDY    70  66  88 SW8G16    29.72S
CLARINDA *     PTCLDY    68  64  88 SW9G16    29.77R
COUNCIL BLFS * CLOUDY    68  68 100 SW7       29.72S
CRESTON *      CLOUDY    66  64  94 SW18G25   29.74R
HARLAN  *      CLOUDY    66  66 100 SW10      29.75S
LAMONI         CLOUDY    66  63  90 SW8G21    29.73F
RED OAK *      CLOUDY    68  66  94 SW12      29.75R
SHENANDOAH *   CLOUDY    68  66  94 SW14G22   29.76R
$$

IAZ047>049-059>061-072>074-084-011100-
   CENTRAL IOWA

CITY           SKY/WX    TMP DP  RH WIND       PRES   REMARKS
AMES           LGT RAIN  66  65  96 S8        29.71S
ANKENY *       CLOUDY    66  64  94 S7        29.71S
CHARITON *     CLOUDY    68  64  88 W13G30    29.75R
DES MOINES     CLOUDY    68  64  87 S7        29.71S
GRINNELL*      CLOUDY    64  63  94 SE7       29.74S
KNOXVILLE *    CLOUDY    66  64  94 SW6       29.72R
MARSHALLTOWN   CLOUDY    66  63  90 S12       29.71F
PELLA *        CLOUDY    66  64  94 CALM      29.75R
PERRY *        CLOUDY    68  64  88 S9G18     29.70F
$$

IAZ004>006-015-016-023>025-035-036-011100-
   NORTH CENTRAL IOWA

CITY           SKY/WX    TMP DP  RH WIND       PRES   REMARKS
ALGONA *       CLOUDY    66  66 100 SW9       29.69R
CLARION *      CLOUDY    66  66 100 S8        29.68F
ESTHERVILLE    CLOUDY    64  63  96 W6        29.68S
FORT DODGE *   CLOUDY    66  64  94 SW13G18   29.69S
MASON CITY     LGT RAIN  65  64  97 S13       29.69F
FOREST CITY *  LGT RAIN  64  64 100 S10       29.67F
IOWA FALLS *   CLOUDY    64  63  94 S7        29.71S
$$

IAZ007>011-017>019-026>030-037>042-050>054-066-011100-
   NORTHEAST IOWA

CITY           SKY/WX    TMP DP  RH WIND       PRES   REMARKS
CEDAR RAPIDS   CLOUDY    65  64  97 SW6       29.73R
CHARLES CITY * RAIN      64  63  94 S10       29.71R
CLINTON *      CLOUDY    64  63  94 SE7       29.76F
DECORAH *      MOCLDY    64  63  94 S5        29.67S
DUBUQUE        CLOUDY    65  62  90 SE9       29.71F
MONTICELLO *   CLOUDY    64  64 100 S7        29.69F
OELWEIN *      MOCLDY    64  63  94 S13       29.71S
WATERLOO       CLOUDY    66  63  90 S14       29.70R
$$

IAZ064-065-067-068-078-011100-
   EAST CENTRAL IOWA

CITY           SKY/WX    TMP DP  RH WIND       PRES   REMARKS
DAVENPORT      CLOUDY    65  62  90 SE9       29.74F
IOWA CITY      CLOUDY    66  64  93 SE5       29.74F
MT. PLEASANT * LGT RAIN  66  64  94 SE13      29.72F
MUSCATINE *    CLOUDY    66  64  94 SE7       29.72F
QUAD CITIES    MOCLDY    65  63  93 SE7       29.76F
$$

IAZ062-063-075>077-085>089-095>099-011100-
   SOUTHEAST IOWA

CITY           SKY/WX    TMP DP  RH WIND       PRES   REMARKS
BURLINGTON     LGT RAIN  67  65  93 CALM      29.78F
FAIRFIELD *    CLOUDY    66  63  88 SW9G18    29.76R
FORT MADISON * LGT RAIN  68  66  94 SE5       29.78F
KEOKUK *       MOCLDY    68  66  94 SE5       29.78F
OSKALOOSA *      N/A     64  64 100 SE3       29.72F
CENTERVILLE *  LGT RAIN  66  66 100 SE15G21   29.73F
OTTUMWA        CLOUDY    65  64  97 S8        29.72F
WASHINGTON *   CLOUDY    66  66 100 W14G22    29.73F
$$

ABBREVIATIONS USED IN REMARKS
   TC - TEMPERATURES IN CELSIUS
  WCI - WIND CHILL INDEX
   HX - HEAT INDEX
  VSB - VISIBILITY
$$



USA.gov is the U.S. government's official web portal to all federal, state and local government web resources and services.